Home > Weather > Chalon-sur-Saône > Past weeks

Flag for France Past Weather in Chalon-sur-Saône, Burgundy, France — Yesterday and Last 2 Weeks

Now
57 °F

Passing clouds.


Feels Like: 54 °F
Forecast: 54 / 57 °F
Wind: 13 mph from Southwest

Location: Dole Tavaux

Current Time: May 30, 2016 at 3:21:10 AM

Latest Report: May 30, 2016 at 2:30 AM


Visibility: N/A

Pressure: 29.77 "Hg

Humidity: 94%

Dew Point: 55 °F

Location of Chalon-sur-SaôneLocation

Past Weather in Chalon-sur-Saône — Graph

°F

Chalon-sur-Saône Temperature Yesterday

Maximum temperature yesterday: 68 °F (at 3:30 PM)
Minimum temperature yesterday: 55 °F (at 6:30 AM)
Average temperature yesterday: 61 °F

High & Low Weather Summary for the Past Weeks

 TemperatureHumidityPressure
High79 °F (May 21, 7:00 PM)100% (May 16, 2:00 AM)30.24 "Hg (May 16, 2:00 AM)
Low37 °F (May 16, 12:30 AM)43% (May 18, 4:30 PM)29.71 "Hg (May 29, 8:30 AM)
Average57 °F81%29.99 "Hg
* Reported May 15 2:00 AM — May 30 2:00 AM, Chalon-sur-Saône, Weather by CustomWeather, © 2016

Note: Actual official high and low records may vary slightly from our data, if they occured in-between our weather recording intervals... More about our weather records

Advertising

Chalon-sur-Saône Weather History for the Previous 24 Hours

Scroll right to see more
 ConditionsComfort  
Time TempWeatherWind HumidityBarometerVisibility
2:00 AM
Mon, May 30
59 °FMostly cloudy.12 mph94%29.80 "HgN/A
1:30 AM59 °FMostly cloudy.9 mph94%29.80 "HgN/A
1:00 AM59 °FPassing clouds.9 mph94%29.80 "HgN/A
12:30 AM59 °FOvercast.10 mph94%29.80 "HgN/A
12:00 AM59 °FOvercast.10 mph94%29.80 "HgN/A
11:30 PM
Sun, May 29
59 °FPassing clouds.12 mph94%29.80 "HgN/A
11:00 PM59 °FMostly cloudy.12 mph94%29.80 "HgN/A
10:30 PM59 °FMostly cloudy.10 mph94%29.80 "HgN/A
10:00 PM59 °FPartly sunny.12 mph94%29.77 "HgN/A
9:30 PM59 °FLight rain. Mostly cloudy.13 mph94%29.77 "HgN/A
9:00 PM59 °FLight rain. Cloudy.9 mph100%29.77 "HgN/A
8:30 PM61 °FLight rain. Broken clouds.9 mph88%29.77 "HgN/A
8:00 PM63 °FBroken clouds.16 mph83%29.74 "HgN/A
7:30 PM64 °FBroken clouds.8 mph88%29.74 "HgN/A
7:00 PM64 °FLight rain. Broken clouds.8 mph83%29.74 "HgN/A
6:30 PM66 °FBroken clouds.7 mph78%29.71 "HgN/A
6:00 PM66 °FPartly sunny.6 mph83%29.74 "HgN/A
5:30 PM64 °FPartly sunny.9 mph88%29.74 "HgN/A
5:00 PM66 °FPartly sunny.6 mph83%29.74 "HgN/A
4:30 PM63 °FLight rain. Cloudy.7 mph94%29.74 "HgN/A
4:00 PM64 °FBroken clouds.13 mph88%29.74 "HgN/A
3:30 PM68 °FBroken clouds.8 mph69%29.74 "HgN/A
3:00 PM66 °FBroken clouds.8 mph78%29.74 "HgN/A
2:30 PM64 °FBroken clouds.7 mph83%29.74 "HgN/A
2:00 PM66 °FMostly cloudy.5 mph73%29.74 "HgN/A
1:30 PM64 °FBroken clouds.6 mph78%29.74 "HgN/A
1:00 PM64 °FMostly cloudy.7 mph78%29.74 "HgN/A
12:30 PM63 °FPartly sunny.7 mph83%29.74 "HgN/A
12:00 PM63 °FMore clouds than sun.7 mph83%29.74 "HgN/A
11:30 AM61 °FMostly cloudy.8 mph88%29.74 "HgN/A
11:00 AM63 °FPartly sunny.9 mph88%29.74 "HgN/A
10:30 AM63 °FMostly cloudy.10 mph77%29.74 "HgN/A
10:00 AM63 °FMore clouds than sun.8 mph83%29.74 "HgN/A
9:30 AM61 °FPartly sunny.9 mph88%29.74 "HgN/A
9:00 AM61 °FBroken clouds.7 mph88%29.71 "HgN/A
8:30 AM59 °FPartly sunny.6 mph94%29.71 "HgN/A
8:00 AM59 °FPartly sunny.3 mph94%29.74 "HgN/A
7:30 AM57 °FPassing clouds.5 mph100%29.74 "HgN/A
7:00 AM57 °FPassing clouds.2 mph100%29.74 "HgN/A
6:30 AM55 °FPassing clouds.3 mph100%29.74 "Hg5 mi
6:00 AM57 °FPassing clouds.3 mph94%29.74 "HgN/A
5:30 AM57 °FPartly cloudy.3 mph94%29.74 "HgN/A
5:00 AM57 °FPartly cloudy.5 mph100%29.74 "HgN/A
4:30 AM57 °FClear.5 mph100%29.74 "Hg10 mi
4:00 AM59 °FClear.2 mph94%29.74 "Hg10 mi
3:30 AM59 °FPassing clouds.3 mph94%29.74 "HgN/A
3:00 AM59 °FLow clouds.7 mph94%29.77 "HgN/A
Weather by CustomWeather, © 2016

See weather overviewHow to use our weather pages